Theta_e
281 280 280 279 279 278 278 277 277 276 275 275 274 273 273 272 271 270 270 269 269 268 268 268 268 267 267 267 266 266 266 265 265 265 265 264 264 264 264 264 264 264
280 280 279 279 278 278 278 277 277 276 275 275 274 273 272 272 271 270 270 269 269 268 268 268 267 267 267 266 266 266 266 265 265 265 265 264 264 264 264 264 263 263
280 280 279 279 278 278 278 277 276 276 275 274 273 273 272 272 271 270 270 269 269 268 268 268 267 267 267 266 266 266 266 265 265 265 265 264 264 264 264 264 263 263
280 280 279 279 279 278 278 277 276 275 275 274 273 273 272 271 271 270 269 269 269 268 268 268 267 267 267 266 266 266 266 265 265 265 264 264 264 264 263 263 263 263
280 280 279 278 278 277 277 277 276 276 275 274 273 273 272 271 270 270 269 269 268 268 268 267 267 267 266 266 266 266 265 265 265 265 264 264 264 264 263 263 263 263
279 279 279 278 278 277 277 277 277 276 275 274 273 272 272 271 270 270 269 269 268 268 268 267 267 267 266 266 266 266 265 265 265 264 264 264 264 263 263 263 263 263
280 279 279 278 277 276 276 277 276 275 274 274 273 272 272 271 270 270 269 269 268 268 267 267 267 267 266 266 266 265 265 265 265 264 264 264 263 263 263 263 263 262
280 279 278 277 277 276 276 276 276 275 274 273 272 272 271 270 270 269 269 269 268 268 267 267 267 266 266 266 265 265 265 265 265 264 264 264 263 263 263 263 262 262
280 279 278 277 276 276 276 276 276 275 274 273 272 272 271 270 270 269 269 268 268 267 267 267 266 266 266 265 265 265 265 265 264 264 264 263 263 263 263 262 262 262
279 278 277 276 276 276 276 276 275 274 273 273 272 271 271 270 269 269 268 268 267 267 267 266 266 266 265 265 265 265 265 264 264 264 264 263 263 263 263 262 262 262
279 278 277 276 276 276 276 276 275 274 273 272 272 271 270 269 269 268 268 268 267 267 266 266 266 265 265 265 265 264 264 264 264 264 264 263 263 263 263 262 262 262
278 277 277 276 276 276 275 275 274 273 273 272 271 270 270 269 269 268 268 267 267 266 266 266 265 265 265 264 264 264 264 264 264 263 263 263 263 263 262 262 262 262
278 277 277 277 276 276 275 275 274 273 272 272 271 270 269 269 268 268 267 267 267 266 266 265 265 264 264 264 264 264 264 263 263 263 263 263 263 262 262 262 262 262
278 277 277 276 276 275 274 274 273 272 272 271 270 270 269 268 268 267 267 267 266 266 265 265 264 264 264 264 264 263 263 263 263 263 263 263 262 262 262 262 262 261
277 276 276 275 275 274 274 273 272 272 271 270 270 269 269 268 267 267 267 266 266 265 265 264 264 264 263 263 263 263 263 263 263 263 263 262 262 262 262 262 261 261
276 275 275 274 274 273 273 272 272 271 271 270 269 269 268 267 267 266 266 266 265 265 264 264 264 263 263 263 263 263 263 263 263 263 263 262 262 262 262 262 262 262
275 274 274 273 273 273 272 272 271 271 270 269 269 268 268 267 266 266 266 265 265 264 264 264 263 263 263 263 264 264 265 265 264 264 263 263 263 262 262 262 262 262
274 274 273 273 273 272 272 271 271 270 269 269 268 267 267 266 266 266 265 265 264 264 264 264 263 263 263 263 264 265 266 266 265 265 265 264 264 263 263 263 262 262
273 273 273 273 272 272 271 270 270 269 268 268 267 267 266 266 266 265 265 264 264 264 264 263 263 263 263 263 264 265 266 266 266 265 265 265 264 264 264 263 263 263
272 272 272 272 272 271 270 269 269 268 268 267 267 266 266 265 265 265 264 264 264 264 263 263 263 263 262 263 264 264 265 265 265 265 265 265 264 264 264 264 263 263
272 272 272 272 271 270 269 269 268 268 267 267 266 266 265 265 265 264 264 264 264 263 263 263 262 262 262 262 263 264 265 265 265 265 265 264 264 264 264 263 263 263
272 272 272 271 270 269 268 268 267 267 267 266 266 265 265 264 264 264 264 264 263 263 263 262 262 262 262 262 263 264 265 265 264 264 264 263 263 263 263 262 262 262
272 272 271 270 269 268 268 267 267 266 266 266 265 265 264 264 264 264 263 263 263 262 262 262 262 262 261 261 262 263 264 264 264 263 263 263 263 262 262 262 262 261
272 271 270 269 268 268 267 267 266 266 265 265 265 264 264 264 263 263 263 263 262 262 261 261 261 261 261 261 262 263 263 263 263 263 263 263 262 262 262 261 261 261
271 270 269 268 268 267 267 266 266 265 265 265 264 264 264 263 263 263 262 262 262 261 261 261 261 261 261 260 261 262 262 263 263 262 262 262 262 261 261 261 261 261
270 269 268 268 267 267 266 266 265 265 265 264 264 263 263 263 262 262 262 261 261 261 261 260 260 261 261 260 259 261 262 262 262 262 262 262 262 262 261 261 261 261
Wind_Speed
47 45 44 43 41 39 36 33 31 28 26 23 21 20 18 16 16 15 16 17 17 18 18 18 18 17 17 17 17 17 17 18 18 17 16 15 15 15 15 16 16 16
48 46 45 43 42 40 38 36 32 29 27 24 21 20 18 17 17 17 17 17 17 18 18 19 19 18 18 18 18 19 19 20 20 19 18 17 17 17 18 18 17 17
48 47 46 45 44 42 40 37 33 30 27 24 21 20 19 18 18 18 18 18 18 19 19 20 20 19 19 19 19 20 21 22 22 21 20 19 19 19 20 19 18 18
48 48 47 47 45 43 40 37 34 31 28 25 23 21 20 19 19 19 19 19 20 20 20 21 21 21 20 20 20 22 23 23 23 22 21 21 21 22 22 21 20 20
47 47 46 45 44 42 40 37 35 32 29 27 24 22 21 20 20 21 21 21 21 21 22 22 22 22 21 21 22 23 24 25 25 23 22 23 23 23 24 23 23 23
44 45 45 44 43 42 40 39 36 33 30 27 24 22 21 21 21 22 22 23 22 22 23 23 23 23 22 22 23 25 26 26 26 24 23 24 24 24 25 25 25 26
43 43 43 43 42 41 40 39 36 33 30 27 24 23 22 22 23 23 24 24 23 23 24 24 24 24 23 23 24 26 27 28 27 25 24 24 24 25 25 25 26 26
43 42 41 41 40 40 39 38 36 33 30 27 24 23 23 23 24 24 24 24 24 24 24 24 24 24 24 25 26 27 28 28 28 26 25 25 25 25 26 26 27 27
40 40 39 39 39 39 39 38 36 33 30 27 25 24 23 23 24 24 25 24 24 24 24 24 25 25 25 26 27 28 29 29 28 27 27 27 26 26 27 27 28 28
38 38 38 38 38 38 38 37 35 32 29 26 25 24 23 23 24 24 24 24 24 25 25 25 25 25 25 26 27 28 29 29 29 28 28 28 28 28 28 28 29 29
37 37 37 37 37 37 37 36 34 31 28 25 24 24 23 23 24 24 25 25 25 25 25 25 25 25 26 27 27 28 29 30 30 29 30 29 29 29 29 29 30 31
36 36 37 37 37 37 36 35 32 29 27 25 24 23 23 23 24 25 25 26 26 25 25 25 25 25 26 26 27 27 28 29 30 30 30 30 30 30 30 31 32 32
35 36 36 36 36 35 34 32 30 27 25 24 23 23 23 24 25 25 26 26 25 25 25 25 25 25 25 26 26 27 28 29 29 30 31 31 31 31 31 32 33 33
34 34 34 34 34 33 31 29 27 25 23 22 22 23 24 25 25 25 26 25 25 25 25 24 24 25 26 26 26 27 28 29 30 30 31 32 33 33 33 34 34 34
32 31 32 31 31 30 29 27 25 23 22 22 23 24 24 24 25 25 25 25 25 25 25 24 24 25 26 26 26 27 28 29 30 31 33 34 34 35 35 35 35 36
29 29 29 29 29 28 27 25 23 21 22 23 23 24 24 24 24 25 25 26 26 26 25 25 25 26 26 25 25 26 26 28 29 31 32 34 35 35 35 35 36 37
28 28 28 27 27 26 24 22 21 21 22 23 24 24 24 24 24 25 26 26 26 26 25 25 26 26 25 24 23 24 25 26 28 30 30 32 33 34 34 34 34 35
27 27 26 26 26 24 22 20 20 21 22 23 24 24 24 24 25 26 26 26 26 26 26 26 27 26 24 23 23 24 25 27 29 31 31 30 30 31 31 31 31 31
26 26 26 25 23 21 20 20 20 22 23 24 24 24 24 25 26 26 26 26 26 26 27 27 27 27 24 23 23 25 26 27 28 30 31 31 30 29 29 29 29 29
25 25 24 23 21 19 19 20 21 23 23 24 24 23 24 25 26 26 26 25 26 26 27 27 27 27 25 23 24 25 26 27 28 29 30 31 30 29 29 29 29 29
25 24 22 20 19 19 20 21 22 23 24 24 23 24 24 25 25 25 25 25 25 26 27 28 28 28 26 24 24 25 26 27 28 28 29 29 28 27 27 27 27 27
24 22 20 19 19 19 20 21 22 23 23 23 23 23 24 24 24 24 24 25 25 25 27 29 29 28 26 24 24 25 26 25 26 27 28 29 29 28 28 28 28 28
22 21 20 19 18 19 21 22 22 23 22 22 22 22 23 23 23 23 23 24 25 26 27 29 30 28 26 25 24 24 25 25 27 28 28 28 29 29 28 29 30 30
21 19 18 18 18 20 21 21 21 21 21 20 21 21 22 22 22 22 23 24 26 27 27 28 30 30 27 25 24 24 24 25 27 27 27 26 26 26 26 26 28 28
18 17 16 17 18 19 19 20 20 20 20 19 20 21 21 21 21 22 24 25 26 27 27 28 30 30 29 27 25 24 24 24 25 26 27 27 26 27 28 27 28 29
16 16 16 16 17 18 18 18 19 19 19 19 20 20 20 21 22 23 25 26 27 28 28 28 30 30 30 28 26 24 24 24 25 26 28 27 25 23 23 24 25 28
Wind_Direction
236 235 235 236 236 236 237 237 237 237 238 240 242 246 251 257 259 256 257 258 256 257 259 260 261 263 266 267 267 265 263 263 262 264 268 267 264 261 258 259 259 257
234 234 234 234 234 235 236 236 237 237 239 242 244 247 252 255 256 256 257 257 256 256 258 259 259 261 263 265 265 263 262 262 262 264 268 268 267 263 260 260 259 255
234 234 233 233 234 234 235 234 235 237 240 241 243 246 250 254 256 256 257 257 256 256 257 258 259 260 263 265 265 263 261 261 261 263 267 268 268 264 261 260 257 252
233 233 233 234 234 234 234 233 233 236 238 239 241 246 250 254 255 255 256 255 255 256 256 257 258 259 261 263 263 261 260 259 260 262 264 266 267 265 263 261 256 252
233 233 233 233 233 233 232 231 232 235 235 238 242 245 249 252 253 254 255 254 254 255 255 255 256 258 260 262 261 259 258 257 257 259 261 263 266 265 263 260 257 254
233 233 233 233 232 231 230 231 233 234 235 238 241 244 248 251 252 253 253 253 253 254 254 255 256 258 259 260 260 259 257 256 256 258 259 261 263 263 261 258 256 254
232 233 232 232 231 230 230 231 232 233 235 238 241 244 248 250 252 252 252 253 253 254 254 255 256 258 259 259 259 259 257 255 255 256 258 260 261 260 258 255 253 253
232 232 231 230 229 229 229 230 231 232 234 236 239 244 248 250 252 252 252 252 253 253 254 255 256 257 258 258 258 258 256 254 254 254 257 258 258 257 255 253 253 252
231 230 229 229 228 227 228 229 230 231 232 235 240 245 249 251 252 251 250 251 252 254 254 255 257 258 258 259 258 257 255 253 253 254 256 257 256 256 255 253 252 252
229 228 227 227 226 227 228 228 228 229 231 236 241 246 248 250 250 249 250 251 252 253 254 255 257 258 259 260 258 257 255 253 254 255 256 257 257 258 257 254 253 253
227 226 225 225 226 227 227 226 226 227 231 237 241 245 248 249 249 248 250 251 252 253 255 257 259 260 260 260 258 257 255 254 255 256 257 258 258 260 259 257 255 255
225 224 224 225 226 225 225 224 225 227 232 237 242 246 248 248 249 250 251 252 253 255 257 260 261 261 261 260 259 257 256 256 257 258 258 258 260 261 260 259 258 257
224 224 225 225 225 224 223 223 224 228 234 239 244 248 248 249 250 251 252 253 254 256 259 262 262 262 261 261 260 259 258 258 258 258 259 259 261 262 261 261 260 258
225 225 226 225 223 222 221 222 225 230 236 242 247 248 248 250 252 253 253 253 255 258 261 262 262 262 261 261 260 260 259 260 260 260 260 261 262 262 262 261 260 259
224 224 223 221 219 219 219 222 226 233 240 245 247 248 249 252 254 253 252 252 255 258 260 261 261 261 262 262 262 262 262 262 263 263 263 263 262 262 262 261 260 260
222 221 219 217 216 217 219 223 230 237 243 246 246 248 251 253 252 251 250 252 256 258 259 260 262 263 266 265 262 262 263 264 264 263 262 262 261 261 261 261 261 261
219 217 215 213 214 216 221 228 236 241 244 245 246 248 251 251 249 248 250 253 257 258 259 262 265 268 270 266 260 259 261 262 262 261 260 259 258 257 258 260 261 260
216 213 211 212 214 219 226 233 239 241 242 243 245 248 250 248 248 249 251 255 257 259 261 264 268 272 271 264 261 262 263 263 263 264 263 261 260 258 257 258 258 257
213 210 210 213 217 225 232 236 239 240 241 244 247 249 249 248 248 250 253 256 258 261 265 268 271 274 271 265 264 267 267 266 267 267 266 266 264 262 260 259 259 258
210 210 212 216 223 229 234 236 237 240 243 246 248 247 247 247 249 252 254 258 262 265 269 271 273 276 275 269 267 269 270 270 270 269 268 268 267 265 263 262 261 259
209 211 214 221 227 230 234 236 239 242 245 246 247 246 248 249 251 254 257 261 264 267 271 273 275 278 278 272 268 270 272 274 275 274 272 271 269 267 266 264 262 260
211 214 218 224 227 230 234 237 240 243 244 246 247 248 250 251 253 256 260 264 267 270 272 274 277 278 277 272 270 272 274 275 276 275 273 272 270 268 266 265 264 262
215 218 221 225 229 232 237 240 242 244 245 246 247 249 250 252 255 259 263 267 270 271 272 275 278 279 279 275 272 272 274 274 273 273 271 269 268 267 265 264 263 262
218 221 225 229 233 237 240 242 242 244 246 248 249 251 254 256 259 264 266 268 271 272 274 276 278 281 281 277 272 272 273 273 273 273 271 269 268 268 266 264 264 262
222 227 231 235 238 240 242 243 245 247 250 251 252 254 257 260 262 265 267 269 271 273 274 274 277 281 282 278 273 272 273 272 271 270 269 268 268 268 268 266 263 264
229 233 238 240 242 243 245 247 249 250 251 251 253 256 259 262 263 265 268 270 271 273 274 274 275 280 283 281 276 273 273 272 269 268 268 267 266 266 265 262 259 260